Location: Bletchingley
(51.2333°N, 0.1000°W)
Time: 22:20:24
(UTC+00:00)

ATLAS 3B R/B - Pass Details

Date: 18 September 2020
Orbit: 1016 x 1179 km, 63.8° (Epoch: 04 October)

Event Time Altitude Azimuth Distance (km) Brightness Sun altitude
Rises 23:10:58 0° 312° (NW) 3,848 6.3 -36.6°
Reaches altitude 10° 23:14:02 10° 300° (WNW) 2,914 5.4 -36.7°
Enters shadow 23:17:17 22° 274° (W) 2,203 4.4 -36.8°
